Wind_Speed
22 21 19 19 18 17 15 14 14 12 9 8 6 5 5 5 5 6 6 7 9 10 11 13 13 13 13 13 14 16 18 19 21 22 23 24 24 25 25 24 22 16 13 18 23 20 16 16 19 21 22 22 24 25 26 27 28 28 28 29 29 29 30
22 20 20 19 19 18 17 16 15 14 13 12 10 8 7 6 5 5 5 5 6 8 9 12 14 16 16 16 17 18 18 18 18 19 20 21 21 22 23 22 22 20 16 16 20 24 23 19 19 23 24 25 26 26 26 27 29 29 29 29 29 29 29
22 21 20 20 20 19 18 17 16 14 13 13 13 11 10 8 7 6 6 5 5 5 6 8 10 12 13 14 16 18 19 19 20 20 19 20 20 20 21 21 20 19 18 17 17 20 23 22 22 24 25 26 27 27 27 28 29 29 29 29 29 29 29
22 21 20 20 20 19 18 17 16 14 12 12 12 11 10 9 9 9 8 7 7 6 6 7 7 8 9 10 12 15 16 18 19 20 20 20 20 20 21 20 20 20 19 17 16 17 19 20 19 22 25 26 26 26 27 27 27 27 28 28 28 28 29
22 22 21 20 20 19 17 16 15 14 12 11 11 10 10 9 9 8 8 8 8 8 8 8 8 7 7 7 9 11 13 15 16 17 18 19 19 19 20 20 20 22 20 17 15 15 17 17 15 15 19 22 24 25 25 25 26 26 26 26 27 27 27
22 21 21 20 19 19 17 15 14 13 13 12 11 11 10 10 9 9 8 7 7 8 8 9 9 10 10 9 9 9 10 11 13 14 16 18 19 19 19 20 21 22 22 21 19 16 17 20 19 17 16 17 19 22 23 24 24 25 25 25 25 27 27
23 21 21 21 20 19 18 15 13 13 14 13 13 13 13 12 11 11 10 9 8 7 8 9 9 10 10 11 12 12 11 11 11 12 13 15 17 17 18 19 20 21 21 22 21 20 19 21 24 24 23 21 18 19 23 25 24 24 26 28 29 30 31
22 19 19 20 20 20 18 16 14 14 15 15 15 15 15 14 13 13 12 12 10 9 8 9 10 11 11 11 12 13 13 14 13 13 13 12 12 13 15 18 18 18 19 19 20 20 20 20 21 24 26 25 20 19 23 25 25 25 28 30 32 34 35
21 18 18 19 20 20 20 17 15 14 14 15 16 16 15 14 14 14 13 13 12 11 11 11 11 12 13 12 12 12 12 13 13 14 15 15 13 12 12 14 16 17 17 17 17 18 18 18 19 20 21 21 22 23 25 26 26 27 27 27 29 33 35
21 18 18 18 19 21 20 18 16 14 13 14 16 16 15 15 15 14 13 13 13 13 13 12 11 11 12 12 12 12 12 12 12 12 13 15 16 15 14 13 14 15 16 16 16 17 16 15 17 19 19 20 22 22 23 23 25 26 25 22 21 26 29
21 19 17 17 20 22 20 18 17 15 14 14 15 15 15 15 15 14 13 12 13 13 12 10 9 10 10 11 11 12 14 14 13 13 13 14 14 16 16 16 14 14 14 15 16 17 16 16 17 17 18 21 22 22 22 22 24 26 24 20 18 19 21
20 18 17 17 21 22 20 18 17 15 14 15 16 16 15 15 16 15 14 13 13 14 13 12 11 11 11 11 11 12 14 14 13 13 13 14 14 15 16 17 17 17 16 15 15 16 16 17 16 15 16 18 20 22 24 24 24 26 24 22 21 21 20
19 18 17 19 21 20 19 19 17 15 15 16 16 16 16 16 16 16 15 15 14 15 15 15 14 14 12 11 10 10 10 12 13 14 14 15 16 16 17 17 18 19 19 19 19 19 19 19 17 15 15 14 13 15 18 20 23 26 26 25 25 26 25
19 19 19 19 19 18 19 19 17 15 16 17 17 16 16 17 16 16 15 15 14 14 14 14 14 14 14 13 13 14 14 14 15 16 17 17 17 17 17 18 19 19 20 21 22 23 24 23 21 21 20 17 14 13 13 13 16 19 22 24 26 27 27
20 20 20 19 18 19 20 20 19 17 16 17 17 16 16 16 15 15 15 14 14 15 15 15 15 15 15 15 15 14 13 12 13 14 15 17 18 19 19 18 19 19 19 20 21 23 26 26 25 26 27 25 24 22 20 18 16 16 17 19 21 24 24
20 19 19 18 17 18 20 21 21 19 17 17 17 17 17 16 16 15 15 15 15 14 15 15 15 16 16 14 14 13 11 11 12 14 16 18 20 20 19 19 18 16 15 16 17 19 22 23 23 24 26 26 26 27 28 27 25 24 22 19 18 21 24
19 18 18 16 16 18 21 22 21 19 18 17 17 17 17 17 16 16 15 15 14 13 13 12 12 12 13 13 14 14 14 13 14 16 18 19 18 17 17 18 18 16 16 16 17 19 20 20 21 21 22 23 23 24 25 25 26 27 25 21 17 17 22
20 19 16 15 17 20 23 22 20 19 18 17 16 16 16 17 16 16 15 15 14 14 14 13 12 11 12 14 14 14 15 15 16 17 18 16 16 16 17 17 16 16 17 18 19 21 22 21 22 21 22 23 22 22 23 23 26 25 22 20 20 20 22
20 18 17 18 21 22 22 21 20 19 18 17 16 15 16 16 16 16 15 15 15 15 15 15 15 15 14 15 15 16 16 15 15 15 16 16 17 18 17 16 14 14 15 16 17 19 20 21 21 21 22 22 22 22 22 25 28 27 22 21 22 23 19
18 19 20 22 22 20 19 19 20 19 17 16 15 15 15 15 15 15 15 15 15 16 16 16 16 15 15 15 15 15 14 14 14 14 15 17 18 19 18 17 17 18 19 19 21 22 23 24 25 23 21 20 20 21 22 24 27 29 27 24 22 22 20
19 21 22 21 18 17 17 17 17 17 15 14 15 15 15 15 15 15 16 17 17 16 16 16 15 14 14 14 15 15 15 15 15 14 15 17 17 18 18 18 19 21 21 21 23 24 25 25 24 22 21 20 21 21 22 23 25 27 29 28 27 25 22
20 20 20 19 16 16 16 16 15 15 15 14 14 15 15 15 15 15 15 17 17 15 15 15 15 15 16 16 17 17 18 18 16 15 15 16 17 17 18 19 20 21 21 21 21 21 22 21 20 20 21 21 22 22 22 23 24 26 28 30 32 31 29
18 18 19 18 16 15 15 15 15 15 14 14 14 15 16 16 15 14 14 15 16 16 16 17 17 17 17 17 17 18 18 17 16 15 16 18 19 20 20 20 21 21 21 20 20 20 20 20 19 19 21 22 23 23 23 23 24 25 26 28 31 32 33
17 17 17 17 15 15 15 15 15 15 15 15 16 16 16 16 15 13 12 13 15 16 16 17 18 18 19 19 21 21 20 18 18 18 19 21 21 21 21 21 22 21 20 20 20 21 22 22 21 21 22 23 24 24 24 24 25 25 26 27 28 29 30
17 17 16 16 16 16 16 16 15 16 15 15 16 16 15 14 12 11 11 13 16 17 17 17 18 18 19 20 20 21 20 20 19 19 20 22 22 22 23 24 24 24 22 21 21 21 21 22 23 22 23 23 23 23 24 24 24 26 27 27 27 26 27
16 15 15 16 17 17 18 17 17 17 16 15 15 14 13 11 10 11 13 16 17 17 17 17 17 17 18 18 19 19 20 21 21 21 22 23 24 24 24 24 25 25 24 23 23 23 22 22 22 21 21 21 21 22 24 24 24 25 27 27 26 26 26
16 17 17 18 18 19 20 20 19 18 16 15 15 15 13 13 14 15 17 18 19 19 19 19 19 20 20 21 22 22 22 23 23 23 23 23 22 22 22 22 23 23 24 23 24 23 22 21 20 19 19 20 21 24 25 24 24 25 26 26 25 24 23
19 18 18 19 20 21 21 21 20 18 17 16 16 17 17 18 19 18 19 20 20 21 22 22 22 22 22 21 22 22 22 22 21 20 20 19 19 19 20 20 20 20 20 21 21 21 20 20 20 21 22 22 22 24 24 23 23 24 25 26 24 23 23
21 21 21 22 23 22 22 22 21 20 19 18 18 20 21 21 19 19 20 21 21 22 23 23 22 21 20 20 21 22 22 21 19 17 16 16 16 17 17 17 17 18 19 19 20 21 21 21 21 21 21 20 20 21 21 21 22 23 24 23 21 20 21
23 24 24 25 25 24 23 24 24 23 21 21 21 22 22 21 19 19 21 21 21 21 22 21 20 19 18 19 20 21 20 18 16 14 14 15 15 16 16 16 17 18 18 17 16 16 16 15 16 16 17 17 19 20 20 19 19 20 20 18 15 14 16
24 24 25 26 27 27 26 26 25 24 23 23 22 21 21 21 20 20 21 20 20 21 21 20 19 19 19 19 21 22 22 19 16 13 13 14 14 15 15 16 17 17 18 18 18 18 17 17 17 17 16 16 17 18 17 16 16 16 16 17 17 17 19
24 24 24 24 25 26 26 25 24 23 23 22 21 21 21 20 20 20 20 20 20 21 21 19 19 19 19 19 20 21 21 18 15 13 13 13 14 15 15 15 16 17 19 20 20 20 20 20 20 19 18 18 20 19 16 16 17 17 16 17 19 20 20
21 22 22 22 22 23 23 23 22 22 21 20 20 20 20 19 19 20 20 20 21 21 20 19 19 20 20 20 21 21 20 18 15 14 14 13 13 14 14 16 16 16 18 18 18 19 19 19 18 18 17 18 20 19 16 15 15 15 15 16 17 18 20
19 19 20 20 20 20 20 20 20 20 19 19 18 18 18 19 20 20 19 19 19 20 21 21 21 21 21 20 19 18 17 16 14 13 13 12 13 14 15 16 16 16 16 16 16 17 18 17 16 16 16 16 16 15 14 14 13 13 14 15 16 17 17
21 20 19 18 19 19 19 20 20 19 18 16 16 17 18 20 22 21 19 18 18 19 20 19 17 16 16 15 14 14 14 15 14 13 13 12 13 14 15 16 17 17 16 16 16 18 18 18 18 18 17 17 16 15 14 14 14 14 14 13 14 15 14
22 21 19 18 18 18 18 18 16 14 13 14 16 19 21 22 22 20 19 18 17 18 17 16 14 14 14 13 13 14 15 15 15 14 14 13 13 14 16 17 18 17 16 16 17 18 19 19 18 18 17 17 17 16 15 15 15 15 12 10 9 9 8
Wind_Direction
41 41 42 44 44 43 44 44 41 37 35 33 29 24 16 2 345 332 318 292 273 261 254 252 250 246 239 235 234 232 232 233 232 234 234 234 234 233 234 235 230 235 248 241 237 239 242 242 239 238 239 238 237 237 238 239 242 244 244 245 244 243 242
38 37 36 38 39 40 41 42 42 40 39 37 30 23 14 4 354 348 343 329 312 296 282 273 267 265 259 253 247 241 239 238 235 235 234 232 232 233 233 231 229 234 245 248 240 238 244 249 241 235 236 236 236 236 235 237 239 240 242 243 244 245 244
38 36 34 33 33 34 35 35 35 36 39 38 32 28 20 11 4 351 338 328 318 310 301 289 280 276 274 266 259 252 247 245 242 241 242 241 239 239 239 236 236 241 247 253 251 244 246 249 242 236 236 238 239 237 236 237 239 241 242 243 244 246 247
34 32 31 29 28 29 30 30 26 24 29 33 28 24 18 16 18 7 354 339 317 301 291 288 286 285 281 273 266 261 255 252 248 246 247 248 245 242 242 241 240 243 248 255 258 249 244 246 244 239 238 238 237 235 235 238 241 242 243 244 244 245 247
28 26 25 24 21 21 23 27 22 11 13 20 18 14 8 7 9 4 1 356 341 323 302 288 283 282 280 272 267 265 261 257 254 252 249 247 246 243 241 240 236 237 242 252 260 252 241 240 244 245 242 240 238 234 232 236 240 243 244 245 244 244 245
22 20 19 17 15 13 13 19 18 4 1 5 4 2 360 357 354 349 344 342 342 339 322 301 285 278 275 271 268 266 263 259 256 257 256 253 251 248 246 246 243 243 248 254 259 258 249 244 248 255 254 249 244 240 235 233 236 241 244 245 246 245 246
15 12 11 9 7 7 5 8 8 356 352 357 358 357 354 349 345 340 331 323 319 323 322 312 300 289 279 274 271 267 263 261 256 257 258 258 256 254 251 251 251 251 253 256 258 258 255 251 252 256 257 255 252 249 244 238 234 235 238 242 245 247 248
10 5 2 1 0 360 358 358 357 350 348 351 352 352 349 343 338 332 327 324 318 310 304 302 299 295 292 285 278 271 265 263 261 258 256 255 256 257 254 252 251 249 248 250 252 253 253 251 250 252 254 254 250 242 239 237 234 235 238 240 243 247 248
5 1 354 351 352 353 352 352 351 346 346 347 345 343 341 337 333 329 324 319 314 306 298 295 294 291 292 293 288 281 274 268 266 263 259 256 253 254 256 254 250 245 242 243 245 247 247 246 244 243 244 245 241 235 233 232 231 236 241 242 245 249 250
357 356 350 344 343 346 347 346 345 343 342 341 338 335 334 331 325 320 317 314 312 308 301 297 294 289 290 293 289 284 279 275 272 269 266 261 255 252 253 257 256 249 243 242 244 246 244 241 240 240 237 239 240 240 238 231 225 231 241 243 246 252 252
350 351 347 337 335 340 341 339 340 339 336 334 333 331 327 323 318 312 306 306 310 312 309 301 291 282 281 284 285 286 286 284 279 275 270 267 262 256 252 255 259 259 252 248 249 251 249 247 248 246 241 241 243 244 246 239 228 229 236 238 242 252 253
344 344 340 330 329 333 334 335 336 335 332 331 330 329 323 315 312 309 302 297 298 301 301 299 294 287 281 282 286 289 290 288 284 280 274 269 266 262 256 253 253 256 257 257 258 259 256 253 258 259 252 248 247 246 247 246 237 231 233 236 239 246 251
336 337 331 324 326 329 328 331 334 332 330 328 326 326 322 313 307 304 300 295 292 292 292 293 294 291 282 277 280 283 286 290 292 291 286 280 275 269 264 259 255 254 254 255 260 264 263 258 261 266 262 256 256 254 252 248 241 235 234 237 240 246 252
329 329 325 323 325 323 322 326 331 331 327 324 324 324 320 313 307 303 299 294 291 288 286 287 289 288 282 275 277 282 285 288 290 291 289 287 285 282 277 270 264 260 257 256 256 259 261 260 260 263 263 258 259 268 272 267 256 245 240 241 245 251 255
321 321 322 322 320 317 317 322 328 329 323 320 322 321 317 312 309 306 301 296 293 288 284 282 281 282 284 283 280 279 280 282 288 292 293 290 288 288 287 282 277 273 268 265 261 260 261 262 261 261 263 261 259 262 266 270 272 267 258 256 258 258 257
317 318 317 316 314 314 316 319 323 324 321 318 319 318 316 312 310 308 303 299 298 294 288 283 279 278 279 278 275 270 269 280 291 294 295 293 287 282 282 284 285 280 273 270 270 269 270 270 269 266 265 264 262 261 263 267 272 271 268 269 270 264 259
315 316 314 310 307 309 311 314 317 318 317 317 316 315 314 312 309 307 304 301 299 296 292 287 283 283 281 278 279 279 278 286 291 289 289 292 291 285 282 285 285 275 267 266 270 273 274 274 274 272 268 265 262 260 260 262 264 263 261 262 263 260 258
311 311 308 301 299 304 308 309 312 314 314 312 312 312 312 311 309 305 302 301 299 296 294 291 288 292 293 291 290 288 285 287 286 284 287 295 300 296 290 291 290 279 271 271 273 275 276 275 273 270 267 265 263 260 257 253 254 255 251 246 246 251 258
307 304 297 294 299 306 309 309 311 313 310 307 307 309 310 310 308 304 302 301 299 297 296 291 287 289 293 294 291 286 283 281 279 283 292 299 302 298 290 290 292 286 282 283 281 281 283 281 277 274 269 267 264 261 257 254 255 256 251 243 241 244 250
300 295 293 297 304 309 310 309 310 312 309 304 304 307 310 309 305 303 304 304 303 301 298 294 292 291 290 290 287 283 280 279 278 284 292 295 296 295 292 290 290 287 287 288 285 284 285 283 280 278 274 271 269 264 260 256 255 253 252 252 252 247 242
293 293 295 301 306 309 311 311 311 311 307 302 302 306 308 307 304 303 303 302 299 298 295 295 294 290 288 289 287 284 283 280 277 279 286 288 289 291 292 292 290 289 289 287 284 282 281 279 275 270 266 269 273 270 266 263 259 254 250 251 255 255 253
295 295 297 302 305 305 309 311 311 309 305 300 301 304 306 305 302 301 300 299 298 297 295 295 293 290 289 288 286 285 281 276 273 278 285 288 288 291 292 292 292 292 291 289 286 282 278 273 267 264 265 270 272 271 268 266 263 259 253 251 251 253 255
295 296 296 298 301 302 304 306 306 305 304 303 302 302 303 302 301 300 299 299 300 300 297 294 292 291 288 285 286 289 284 276 276 285 289 289 289 291 291 290 289 288 286 285 284 281 278 275 271 271 272 273 272 272 271 268 266 263 257 254 252 251 252
295 296 295 296 300 303 305 306 305 303 302 302 302 301 301 299 297 298 300 301 304 303 299 295 292 290 288 286 289 293 290 284 282 285 286 287 289 289 288 286 283 281 279 279 277 276 274 273 272 272 273 274 274 274 272 270 269 268 264 261 259 256 253
296 297 298 301 304 307 307 306 306 304 303 302 301 302 301 298 299 305 311 312 312 308 302 297 293 291 291 290 290 290 289 286 284 282 282 283 286 286 285 282 279 276 274 271 270 271 271 271 271 271 271 271 272 273 275 275 274 272 272 274 276 273 266
302 306 309 309 308 307 307 307 306 304 303 303 304 304 301 299 304 314 318 318 316 311 306 303 301 301 302 301 297 293 289 286 283 280 279 279 282 285 285 284 280 275 270 265 264 266 268 269 269 268 268 270 272 274 275 277 277 275 274 277 281 281 277
309 309 307 305 304 303 302 302 301 299 299 299 300 302 303 303 304 308 313 315 314 310 307 305 304 304 302 300 297 293 288 283 279 277 276 278 281 285 287 287 284 277 269 264 261 261 262 265 269 272 276 278 278 276 274 273 274 273 272 274 276 275 274
300 297 295 294 295 296 295 293 292 291 291 292 294 299 305 307 306 305 306 307 307 305 302 300 301 301 300 299 297 294 289 283 277 273 273 277 282 285 287 289 289 283 277 274 272 271 274 278 279 280 282 282 279 276 273 270 270 270 270 271 268 261 259
292 291 290 288 287 287 288 287 285 286 286 286 287 292 298 300 299 299 300 301 300 299 298 298 298 297 295 294 292 289 286 281 275 272 274 278 285 290 293 294 294 293 290 285 282 281 282 281 278 274 275 279 282 283 282 279 275 273 272 272 264 250 247
289 289 288 286 285 283 281 282 284 285 285 284 285 288 290 290 292 295 297 297 297 296 295 294 295 293 292 292 291 292 291 287 282 280 281 284 289 293 297 298 296 297 300 299 297 295 293 290 287 282 278 279 281 282 283 285 284 279 275 274 271 261 258
289 289 288 286 286 285 282 281 283 285 284 283 285 286 286 287 290 292 293 295 296 294 291 290 290 289 288 287 287 289 292 291 288 286 288 290 292 293 296 298 296 297 303 310 314 314 310 307 306 302 296 291 288 284 282 284 289 290 286 283 283 281 279
292 291 290 288 288 287 285 283 283 284 284 283 285 287 287 287 289 290 292 293 291 287 284 284 285 283 283 282 281 282 287 290 290 291 292 293 294 294 294 298 299 300 304 309 313 312 308 306 305 301 296 291 290 289 286 282 285 289 289 286 283 277 273
294 295 295 294 292 290 288 287 286 286 285 286 288 289 289 288 289 290 290 289 285 282 281 281 280 278 278 278 278 281 287 291 292 293 291 290 292 296 298 299 301 302 304 306 308 309 308 306 304 301 296 290 288 288 285 277 277 282 284 282 278 271 268
298 299 298 297 296 295 294 292 291 290 289 290 291 290 290 291 291 290 288 285 281 279 278 276 273 272 274 276 280 286 293 297 298 296 295 294 295 298 299 299 301 303 305 304 303 304 306 308 309 310 309 306 302 300 295 285 277 277 278 275 272 272 271
302 303 301 300 300 300 298 295 293 290 290 291 292 293 294 293 291 288 287 283 278 277 278 278 278 282 286 291 298 304 309 312 312 309 306 303 301 299 298 299 301 302 301 300 300 302 303 305 306 307 308 310 310 307 304 299 292 287 280 271 272 275 268
301 303 303 302 302 302 301 301 298 294 294 297 298 299 296 290 284 283 283 280 278 280 283 287 293 298 300 301 304 306 307 310 312 312 309 305 302 301 299 299 299 298 296 296 298 299 299 301 302 301 300 300 298 294 292 292 293 293 286 272 275 279 252
Height
807 807 806 806 806 805 805 805 804 804 804 804 804 805 805 805 806 806 806 807 807 808 808 809 810 810 811 812 812 813 813 813 814 815 815 816 816 817 818 818 819 817 815 816 819 820 820 820 820 820 820 821 822 823 823 823 824 825 826 827 827 828 829
808 808 808 807 807 806 806 805 805 805 805 805 805 805 805 805 805 806 806 806 806 807 807 808 808 809 810 811 811 811 812 812 812 813 813 814 814 814 815 816 816 816 814 814 816 817 817 817 818 818 818 818 818 819 820 820 821 822 823 824 824 824 825
810 810 809 809 808 808 807 807 807 806 806 806 806 806 806 806 806 806 806 806 806 806 807 807 807 808 808 809 809 810 810 811 811 812 812 812 813 813 813 814 815 815 814 813 813 815 815 815 815 815 815 816 816 817 817 817 818 819 820 821 821 821 822
812 811 811 810 810 809 809 809 808 808 807 807 807 807 807 806 806 806 806 806 806 806 806 806 806 806 807 807 807 808 809 809 810 810 810 810 811 811 812 813 814 814 813 813 812 813 813 813 813 813 813 814 814 814 815 815 816 817 817 818 818 819 819
813 813 812 812 811 811 810 810 810 809 808 808 808 807 807 806 806 806 806 806 806 805 805 805 805 805 806 806 806 806 807 807 808 808 809 809 809 809 810 811 811 812 812 811 810 810 811 811 811 811 811 812 812 812 812 813 814 814 815 816 816 816 817
814 814 813 813 812 812 811 811 811 810 809 809 808 808 807 806 806 806 806 805 805 805 805 804 804 804 804 805 805 805 805 806 806 806 807 807 807 808 808 809 809 809 809 809 808 808 809 809 809 809 809 810 810 810 810 811 811 812 813 813 813 814 815
815 814 814 814 813 812 812 811 811 810 810 809 809 808 808 807 806 806 805 805 805 805 804 804 803 803 803 804 804 804 804 804 804 805 805 805 805 806 807 807 807 807 808 807 807 807 807 807 807 807 807 808 809 809 809 809 809 809 810 811 811 811 812
816 815 815 814 813 813 812 812 811 810 810 809 808 808 808 807 807 806 805 805 804 804 804 803 803 803 802 803 802 802 803 803 803 803 803 804 804 804 804 804 805 805 805 805 805 804 804 805 805 805 805 806 807 807 805 806 806 806 806 807 807 807 808
816 816 815 814 813 813 812 812 811 810 810 809 808 808 807 807 806 806 805 804 803 803 803 802 802 802 801 801 801 801 801 801 801 801 801 802 802 802 802 802 803 803 803 803 802 802 802 802 802 802 802 803 803 802 802 803 804 803 802 804 804 804 805
816 815 815 814 813 812 812 811 811 810 810 809 809 808 807 806 805 805 804 803 802 802 801 801 801 801 800 800 800 800 800 799 800 800 800 800 800 800 801 800 801 800 800 801 800 799 799 799 798 798 799 799 799 800 800 800 801 800 801 802 802 800 801
815 815 814 813 812 811 810 810 810 809 809 808 808 807 806 805 804 803 803 802 801 801 800 800 800 799 799 799 798 798 798 798 798 798 798 798 798 798 799 799 799 798 798 798 797 797 797 796 795 796 797 797 797 798 798 797 798 798 799 800 799 797 797
815 814 813 812 811 810 809 809 808 808 807 807 807 806 805 804 803 802 801 801 800 799 799 798 798 798 798 797 797 797 797 796 796 796 796 796 796 796 796 796 797 796 796 796 796 795 795 794 794 794 795 795 795 795 795 795 795 795 796 796 796 794 793
814 813 812 811 810 809 808 808 807 806 806 806 805 805 804 802 801 800 800 799 799 798 797 797 797 796 796 796 796 796 795 795 794 794 794 794 794 794 793 794 794 794 794 794 794 793 792 792 793 793 793 794 793 793 793 792 792 792 792 792 792 790 791
813 812 811 810 809 808 807 807 806 805 805 804 804 803 802 801 799 798 798 797 797 796 796 795 795 794 794 794 794 794 794 793 793 792 792 792 791 791 791 791 791 791 791 791 791 791 789 790 791 791 790 791 791 791 791 791 790 790 790 789 789 788 789
812 811 810 809 808 807 805 805 804 804 803 803 802 801 800 799 797 797 796 795 795 794 794 794 793 792 792 792 792 792 792 792 792 791 790 789 789 789 788 788 788 788 788 788 788 788 787 787 788 788 788 789 789 789 789 789 789 789 788 787 786 786 786
811 810 809 808 807 806 804 804 803 802 802 801 800 800 798 797 796 795 794 793 793 793 792 792 791 791 790 790 790 790 790 790 790 789 788 787 786 786 786 785 786 786 786 786 785 785 785 784 785 785 785 786 787 786 786 787 786 786 786 786 785 783 782
809 808 807 806 806 804 803 802 802 801 800 799 799 798 797 795 794 793 793 792 791 791 790 790 789 789 789 788 788 788 788 788 788 787 787 786 784 783 783 783 783 784 783 783 783 782 782 782 782 782 782 782 783 783 784 785 783 782 783 784 782 779 778
808 807 806 805 804 803 802 800 800 799 798 797 797 797 795 794 793 792 791 790 790 789 788 787 787 787 786 786 786 786 786 786 786 785 784 783 782 781 781 781 781 781 780 780 780 779 779 778 778 778 778 778 779 779 781 781 779 778 780 781 778 776 776
806 805 805 804 802 801 800 798 798 797 797 796 796 795 794 793 792 790 790 789 788 787 786 786 785 785 785 785 785 785 784 784 784 783 782 781 781 779 779 779 779 779 778 778 777 776 776 775 775 775 775 775 775 776 777 776 775 775 776 776 774 773 774
805 803 802 802 801 799 798 797 796 796 795 795 794 794 793 792 791 789 788 787 786 785 785 785 784 784 784 784 783 783 782 782 782 781 780 780 779 778 777 778 777 776 776 775 774 773 773 772 772 772 771 771 772 772 773 773 772 772 773 772 771 770 770
803 802 801 800 799 798 797 796 795 794 794 793 793 792 792 791 789 788 787 786 785 784 784 783 783 783 782 782 781 781 780 780 780 779 779 778 777 777 776 776 775 774 773 772 771 771 770 769 768 768 768 768 769 769 769 769 769 769 769 769 768 767 766
802 800 799 798 797 797 796 795 794 794 793 792 792 791 790 789 788 787 786 785 784 783 782 782 781 781 781 780 780 779 778 778 777 777 776 775 775 775 774 774 773 771 771 770 769 768 767 766 765 765 765 765 765 766 766 766 765 765 765 765 764 764 763
800 799 797 796 796 795 795 794 794 793 792 791 790 790 789 788 787 786 785 784 783 782 781 781 780 779 779 778 778 777 776 775 775 774 774 773 773 773 772 772 771 770 769 768 767 766 764 763 762 762 762 762 762 762 763 763 762 762 761 761 760 760 759
799 798 796 795 795 794 794 793 793 792 791 790 789 788 787 786 785 784 784 783 781 781 780 779 778 777 777 776 775 774 774 773 772 772 772 771 771 770 770 769 768 767 767 766 765 763 762 761 760 760 759 759 759 759 759 759 758 758 757 756 756 755 755
798 797 795 794 793 793 793 792 791 791 790 789 788 787 786 785 784 783 782 781 780 779 778 777 776 775 775 774 773 772 771 770 770 770 769 768 768 767 767 766 765 764 764 763 762 761 759 758 757 757 757 757 757 757 756 755 755 754 753 752 751 751 751
797 796 794 793 792 792 791 790 790 789 788 788 787 785 784 783 782 781 781 780 779 778 777 776 775 773 772 771 770 770 769 768 767 767 766 766 765 764 763 762 761 761 760 760 759 758 757 755 755 755 755 754 754 754 753 753 752 751 750 749 748 747 746
796 795 794 793 792 791 790 789 788 788 787 786 785 784 783 781 780 780 779 778 777 776 775 774 773 772 770 769 768 767 766 765 764 764 763 762 762 761 760 759 759 758 757 756 755 754 753 753 752 752 751 752 751 751 750 750 750 748 747 746 746 745 743
795 794 793 792 791 789 788 787 786 786 785 785 784 782 781 780 780 779 778 777 776 775 773 772 771 770 769 767 766 764 763 762 761 761 760 760 759 759 758 757 756 755 754 753 753 752 750 750 749 749 749 749 748 747 747 747 746 745 744 743 743 742 740
794 793 792 791 789 788 786 784 784 784 784 783 782 781 780 779 778 777 776 775 774 773 771 769 768 767 767 765 764 762 761 759 759 758 758 758 757 757 756 755 754 753 753 752 751 749 748 748 747 747 747 746 746 745 744 744 743 742 741 740 739 738 737
793 792 790 789 787 786 785 783 781 782 781 780 780 779 778 777 776 775 774 773 772 771 769 767 766 765 764 764 762 760 759 758 757 756 756 756 756 755 754 753 753 752 751 750 749 748 746 746 745 745 744 744 743 743 742 742 741 740 738 737 737 736 735
791 789 788 786 784 783 782 781 780 779 779 778 777 776 775 774 773 773 772 771 770 768 766 765 764 763 762 762 760 759 758 756 755 755 754 754 754 754 753 753 752 751 750 749 747 746 745 744 744 743 742 742 741 741 740 739 739 738 736 735 735 734 733
788 787 785 784 782 780 779 778 777 777 776 775 774 773 773 772 771 770 769 769 768 766 764 763 762 761 760 760 758 757 756 755 754 753 753 753 752 752 752 752 751 750 748 747 746 745 744 743 743 742 741 740 740 739 738 737 737 736 735 734 733 733 732
786 784 783 781 780 778 776 775 775 774 773 772 772 771 770 769 768 767 767 766 765 763 762 761 760 759 758 757 756 755 754 753 753 752 752 751 751 751 751 750 750 749 748 746 745 745 743 742 741 740 739 739 738 737 736 735 735 734 733 733 732 731 730
783 782 781 779 777 776 775 773 773 772 771 770 769 769 768 767 766 765 764 764 762 761 759 759 758 757 756 755 754 754 753 752 751 751 750 750 750 749 749 749 748 747 747 746 745 744 742 741 740 739 738 737 736 735 734 733 733 732 732 731 730 729 728
781 780 779 777 776 774 773 772 771 770 769 768 768 767 766 765 763 762 761 761 760 759 757 757 756 755 754 753 752 752 751 750 750 750 749 749 748 748 748 747 747 746 746 745 744 742 741 740 739 738 737 736 735 734 733 732 732 731 730 729 728 727 726
778 777 777 776 774 773 771 770 769 768 767 767 766 765 764 762 761 759 759 758 757 757 756 755 754 753 753 752 751 751 750 749 749 748 748 748 747 747 747 746 745 745 744 743 742 741 740 739 738 737 736 735 734 733 732 731 731 730 728 727 727 726 725